Tracking 28096 objects as of 27-Sep-2023
HD Live streaming from Space Station
objects crossing your sky now

SANOSAT-1 (NO-116)

Track SANOSAT-1 (NO-116) now!
10-day predictions
SANOSAT-1 (NO-116) is classified as:


NORAD ID: 51031
Int'l Code: 2022-002AZ
Perigee: 441.2 km
Apogee: 451.8 km
Inclination: 97.4 °
Period: 93.4 minutes
Semi major axis: 6817 km
RCS: Unknown
Launch date: January 13, 2022
Source: Spain (SPN)
Launch site: AIR FORCE EASTERN TEST RANGE (AFETR)

Uplink (MHz):
Downlink (MHz): 436.235
Beacon (MHz): 436.235
Mode: 500bps GFSK RTTY CW
Call sign: AM9NPQ
Status: Active

Your satellite tracking list
Your tracking list is empty




NASA's NSSDC Master Catalog

Two Line Element Set (TLE):
1 51031U 22002AZ  23269.62285967  .00101345  00000-0  23274-2 0  9997
2 51031  97.4340 340.7446 0007791 217.7681 142.3020 15.42285838 94486
Source of the keplerian elements: AMSAT